Vertical_Velocity
-1 3 1 4 -3 4 1 1 2 -0 1 -1 0 -0 3 4 -1 -2 -0 1 0 -0
-0 4 -3 3 1 1 2 3 -1 0 3 -2 -1 1 -1 0 4 1 -0 -1 -2 -2
3 -1 1 4 -2 3 -1 2 -1 0 -4 5 -3 -0 -1 -0 -3 1 1 1 0 0
1 -1 1 2 0 1 1 -2 -4 2 -1 -3 -1 2 -0 -0 -0 -0 -1 -2 -1 -1
2 1 -1 1 2 0 -2 -0 0 -2 0 -3 -1 1 -1 -5 -6 0 -4 -0 -1 -1
-2 -1 1 1 2 -0 1 -0 -1 -2 -1 -2 -1 -1 -1 -4 -2 -0 -3 -2 -2 -0
-2 -11 0 1 1 0 -1 -1 -5 1 -4 -1 -1 0 -0 -4 0 -2 1 -1 -2 -0
1 -1 -1 -8 4 0 -1 0 5 -3 -4 -0 -2 3 -5 -1 0 3 2 -3 -3 0
1 3 -1 1 4 -1 1 2 -1 -1 0 2 -4 -5 -1 2 2 1 -4 -0 1 2
-1 -3 -2 4 -3 -3 1 1 0 0 1 -5 -4 -2 4 1 0 -2 1 1 1 0
4 1 2 -2 -10 0 0 0 0 -1 -5 -4 0 1 4 -1 -0 1 1 -0 1 -1
0 1 -1 -2 0 -0 0 -1 -2 -1 -3 -1 2 1 -3 1 2 -0 -1 1 -2 -3
-1 -1 -6 -1 -0 -0 2 -2 -1 -1 -1 -3 -1 -1 1 1 -1 -0 1 1 -3 -1
3 -5 -4 -0 1 4 -0 -2 -1 -0 -5 -1 -2 2 0 -2 -3 1 2 -2 -1 0
Height
1522 1525 1524 1523 1523 1525 1524 1524 1524 1523 1523 1523 1523 1523 1523 1522 1521 1520 1519 1517 1516 1515
1520 1522 1523 1522 1522 1522 1523 1522 1522 1522 1521 1521 1522 1521 1521 1521 1519 1518 1517 1515 1513 1512
1519 1520 1521 1521 1521 1520 1520 1520 1520 1519 1519 1519 1519 1519 1518 1517 1516 1515 1513 1512 1510 1509
1517 1518 1519 1520 1519 1519 1519 1518 1518 1517 1517 1517 1517 1517 1515 1514 1513 1512 1511 1510 1508 1507
1515 1516 1517 1518 1518 1517 1517 1517 1515 1515 1514 1515 1515 1514 1512 1511 1511 1509 1508 1507 1505 1504
1513 1514 1515 1516 1516 1516 1515 1515 1513 1512 1512 1513 1512 1511 1509 1508 1509 1507 1505 1504 1503 1501
1510 1513 1513 1514 1514 1514 1514 1514 1511 1510 1510 1510 1509 1508 1507 1507 1506 1504 1502 1501 1500 1499
1508 1510 1511 1513 1512 1512 1512 1509 1509 1509 1508 1508 1507 1505 1505 1505 1503 1501 1499 1498 1497 1497
1506 1508 1509 1511 1510 1510 1508 1508 1508 1507 1506 1504 1504 1504 1504 1502 1499 1497 1496 1496 1495 1494
1503 1505 1507 1506 1506 1508 1507 1507 1505 1504 1503 1503 1504 1503 1501 1498 1496 1494 1494 1493 1493 1492
1499 1501 1503 1503 1505 1504 1504 1504 1503 1502 1501 1502 1502 1500 1496 1494 1493 1491 1491 1491 1491 1491
1495 1500 1501 1501 1501 1502 1502 1501 1501 1500 1500 1500 1498 1496 1493 1491 1489 1489 1489 1489 1490 1490
1495 1497 1499 1499 1500 1500 1499 1499 1499 1499 1498 1497 1495 1493 1491 1488 1487 1487 1487 1489 1490 1491
1493 1496 1498 1498 1498 1498 1498 1497 1497 1497 1496 1494 1493 1492 1489 1487 1487 1487 1488 1489 1491 1492